{"data":{"norad_id":48838,"epoch":"2026-05-24T11:56:20.241600Z","epoch_age_seconds":121529,"freshness":"FRESH","line1":"1 48838U 21049A   26144.49745650 -.00000210  00000+0  00000+0 0  9996","line2":"2 48838   0.0282  33.1572 0004625   2.0409 300.8373  1.00272033 18346","mean_motion":1.00272033,"eccentricity":0.0004625,"inclination_deg":0.0282,"raan_deg":33.1572,"arg_perigee_deg":2.0409,"mean_anomaly_deg":300.8373,"bstar":0,"rev_number":1834,"period_min":1436.0933521713,"perigee_km":35767.024281554,"apogee_km":35806.026594309,"semimajor_km":42164.662437931,"source":"CELESTRAK","updated_at":"2026-05-25T13:38:14.099996Z"}}